Preview of NWS' New Version of Forecast
This preview is not operational and should not be used for support decisions.

Regional Weather Roundup (RWR)

Issued by National Weather Service (NWS)

                            
000
ASUS43 KTOP 251508
RWRKS 

WEATHER ROUNDUP FOR KANSAS
NATIONAL WEATHER SERVICE GOODLAND KS
1000 AM CDT TUE JUN 25 2019

NOTE:  "FAIR" INDICATES FEW OR NO CLOUDS BELOW 12,000 FEET WITH NO
SIGNIFICANT WEATHER AND/OR OBSTRUCTIONS TO VISIBILITY.

KSZ001>006-013>018-027>032-041>047-251600-
NORTHWEST KANSAS
  
CITY           SKY/WX    TMP DP  RH WIND       PRES   REMARKS
GOODLAND       SUNNY     73  57  57 NW7       29.97R                  
HAYS           SUNNY     75  62  64 W14       29.94S                  
HILL CITY      SUNNY     79  62  56 SW14      29.93S                  
RUSSELL        SUNNY     77  63  61 S8        29.91F                  
$$

KSZ061>065-074>080-084>089-251600-
SOUTHWEST KANSAS
  
CITY           SKY/WX    TMP DP  RH WIND       PRES   REMARKS
DODGE CITY     SUNNY     77  66  68 S12       29.98S                  
ELKHART        SUNNY     77  66  69 SW14      29.98S                  
GARDEN CITY    SUNNY     76  68  76 S15       29.96S                  
GREAT BEND     MOSUNNY   72  66  81 SW8       29.98R                  
LIBERAL        SUNNY     74  68  81 SE21G28   29.98                   
PRATT          SUNNY     80  69  69 SW9       29.98S                  
$$

KSZ066>073-081>083-090>101-251600-
SOUTHEAST KANSAS
  
CITY           SKY/WX    TMP DP  RH WIND       PRES   REMARKS
CHANUTE        SUNNY     79  70  74 S10       30.00R                  
COFFEYVILLE    MOSUNNY   78  70  76 S12       29.98R                  
HUTCHINSON     SUNNY     80  65  59 SW9       29.97R                  
MEDICINE LODGE   N/A     79  69  71 S7        29.96S                  
NEWTON         SUNNY     79  67  66 SW12      29.99R                  
PARSONS        SUNNY     78  70  76 SW12      30.01R                  
WICHITA INTL   MOSUNNY   80  68  66 SW13      29.97R                  
WICHITA JABRA  SUNNY     78  68  71 SW12      29.98R                  
WICHITA MCCONL SUNNY     78  69  73 S9        29.98R                  
WINFIELD       SUNNY     80  69  69 SW12      29.99R                  
$$

KSZ007>012-019>026-033>040-048>060-102>105-251600-
NORTHEAST KANSAS
  
CITY           SKY/WX    TMP DP  RH WIND       PRES   REMARKS
CONCORDIA      SUNNY     80  61  52 S13       29.92F                  
EMPORIA        SUNNY     79  69  71 W9        29.98R                  
LAWRENCE       SUNNY     78  64  61 SW6       29.98                   
MANHATTAN      SUNNY     78  62  57 SW6       29.95S                  
MARYSVILLE     SUNNY     77  63  61 SW8       29.93R                  
OLATHE IND     SUNNY     77  66  68 W8        30.01R                  
OLATHE EXE     SUNNY     76  66  71 SW8       29.99R                  
SALINA         SUNNY     77  62  59 CALM      29.96F                  
TOPEKA BILLARD SUNNY     78  64  61 S8        29.96S                  
TOPEKA FORBES  SUNNY     76  63  64 SW8       29.97F                  
$$